Location: Dal�� Lhota
(48.7500°N, 14.0167°E)
Time: 22:20:45
(UTC+00:00)

SPOT 3 Rocket - Pass Details

Date: 24 September 2020
Orbit: 780 x 794 km, 98.8° (Epoch: 24 October)

Event Time Altitude Azimuth Distance (km) Brightness Sun altitude
Exits shadow 18:40:10 31° 113° (ESE) 1,351 4.2 -17.6°
Maximum altitude 18:42:01 43° 66° (ENE) 1,096 4.0 -17.8°
Drops below altitude 10° 18:46:53 10° 357° (N) 2,348 6.3 -18.6°
Sets 18:49:18 0° 351° (N) 3,282 7.2 -19.0°
